Погода в Рославле

Хотите узнать прогноз погоды в Рославле? Тогда Вам сюда: Погода в Рославле

Поиск расширенной информации на нашем сайте:

Полезная информация:

Новости сайта



02.01.2020
Опубликован Долгосрочный прогноз погоды по городам России и ближнего зарубежья на январь 2020 года.
Карты: Прогноз на январь и февраль 2020 года, Сравнение прогнозируемой аномалии приземной температуры воздуха на январь 2020 года по разным моделям.




Погода в Рославле - сегодня

Время (UTC), дата Ветер
(°,м/с) 
Видим.   Явления Облачность Т
(°С)
Тd
(°С)
f(%) Тe
(°С)
Pmin
(гПа)
dP
(гПа)
Po
(мм)
O2
(г/м3)
Тmin Tmax R s Состояние
почвы
03 30.11.20 180 (Ю) 4000 м  дымка  10/10 300 м 
[St]
-0.2 -0.5 98 1024.4  0.1  747  301  -0.2    0.0     
06 30.11.20 200 (Ю) 10 км    9/9 400 м 
[Sc]
-0.5 -0.9 97 1025.4  748  302  -0.5    0.0  равномерный
мокрый или
старый снег
100% 
09 30.11.20 200 (Ю) 20000 м    5/3 600 м средняя, верхняя 
[Cu med, cong|Ac trans|Cc]
+0.3 -2.7 80 1026.1  0.7  748  302           
12 30.11.20 160 (Ю) 20000 м    8/1 600 м средняя, верхняя 
[Cu med, cong|Ac trans|Cs]
-0.2 -2.3 86 -1  1026.4  0.3  749  302           
15 30.11.20 170 (Ю) 20000 м    8/6 600 м средняя, верхняя 
[Sc|Ac As|Ci fib]
-1.8 -3 91 -3  1027.1  0.6  749  304           
18 30.11.20 190 (Ю) 20000 м    10/0 средняя 
[As trans]
-1.9 -2.7 94 -3  1027.6  0.5  749  304    +0.4       
21 30.11.20 190 (Ю) 20000 м    10/0 средняя 
[As trans]
-2.2 -2.9 95 -2  1028  0.3  750  305           
00 01.12.20 200 (Ю) 20000 м    8/0 средняя 
[As trans]
-2.1 -2.8 95 -3  1028.4  0.4  750  305           
03 01.12.20 170 (Ю) 10 км    10/0 верхняя 
[Cs]
-2.8 -3.3 96 -2  1028.9  0.4  750  306  -2.8         
06 01.12.20 190 (Ю) 0200 м  переохл. туман [диам. изморози 1 мм]  ?/?  
-3.4 -3.8 97 -3  1030  751  307  -3.4      сухой снег
50-90% 
09 01.12.20 тихо ()   0050 м  переохл. туман [диам. изморози 2 мм]  ?/?  
-2.9 -3.3 97 -3  1030.8  0.9  752  306           
12 01.12.20 040 (СВ) 4000 м  дымка{туман}  8/6 600 м средняя 
[Sc diur, vesp|Ac und]
-2.7 -3.1 97 -2  1031.1  0.3  752  306           
15 01.12.20 330 (СЗ) 1000 м  дымка  10/10 600 м 
[Sc]
-3.5 -3.9 97 -3  1032.1  0.9  752  308           
21 01.12.20 070 (В) 4000 м  дымка  10/10 800 м 
[Sc]
-1.4 -1.7 98 -1  1032.9  0.4  753  305           
00 02.12.20 120 (ЮВ) 20000 м  в посл. час туман  10/10 600 м 
[Sc]
-1.2 -1.6 97 -2  1033.2  0.4  753  305           
03 02.12.20 900 () 20000 м    10/10 600 м 
[Sc]
-0.1 -1.2 92 -3  1032.9  -0.5  753  304  -2.2         
06 02.12.20 090 (В) 10 км    10/10 570 м 
[Sc]
-2.4 -4.1 88 -4  1033  0.2  753  307  -2.4      сухой снег
50-90% 
09 02.12.20 090 (В) 20000 м    9/9 630 м 
[Sc]
-2.9 -4.7 87 -5  1032.7  -0.4  753  307           
12 02.12.20 090 (В) 20000 м    9/8 630 м верхняя 
[Sc|Cc]
-3.2 -5.6 83 -5  1031.6  -1.1  752  307           
15 02.12.20 110 (В) 20000 м    9/9 540 м 
[Sc]
-4.4 -6 89 -7  1031.4  -0.3  752  309           
18 02.12.20 140 (ЮВ) 50000 м    10/10 480 м 
[Sc]
-4.2 -6.3 85 -6  1031.2  -0.2  752  308    -2.4       
21 02.12.20 140 (ЮВ) 20000 м    10/0 средняя 
[Ac As]
-4.4 -5.5 92 -7  1031.2  752  308           
00 03.12.20 140 (ЮВ) 20000 м    10/4 300 м средняя 
[Sc|Ac As]
-4.1 -5.5 90 -6  1031.1  0.1  752  308           
03 03.12.20 140 (ЮВ) 20000 м    10/5 300 м средняя 
[Sc|Ac As]
-3.9 -5 92 -6  1030.5  -0.5  751  308  -4.4         
06 03.12.20 140 (ЮВ) 20000 м    10/10 480 м 
[Sc]
-3.5 -4.9 90 -5  1030.5  751  307  -4.4      сухой снег
50-90% 
Время (UTC), дата Ветер
(°,м/с) 
Видим.   Явления Облачность Т
(°С)
Тd
(°С)
f(%) Тe
(°С)
Pmin
(гПа)
dP
(гПа)
Po
(мм)
O2
(г/м3)
Тmin Tmax R s Состояние
почвы

Для получения пояснительной информации подведите курсор к названию столбца.

ПОГОДА в Рославле - архив

Всё, что Вы хотите узнать о погоде в Рославле - удобно и подробно!

Выберите нужную дату (начиная с 1 января 2019* года) и нажмите кнопку "Найти".
Будут отображены архивные сводки погоды по пункту Рославль, начиная с указанной даты.


Отображать данные в формате CSV (для использования в таблицах Excel)


Внимание! Наш архив погоды предназначен исключительно для личного некоммерческого использования в познавательных целях. Если Вам необходимы официальные справки о состоянии погоды (для производственных, юридических, коммерческих и т.п. целей), обращайтесь в органы Росгидромета.

*Примечание: данная дата относится к архиву по метеостанциям СССР (Россия, СНГ, Балтия).
Архив по метеостанциям Зарубежной Европы и Азии (кроме Китая) хранится 10 дней, по другим регионам земного шара (Китай, Африка, Америка, Австралия, Океания) - 1 день.

Рославль - район местоположения метеостанции


Название, широта, долгота, высота метеостанции:
Рославль 53.9°ш. 32.8°д. 224 м над ур. моря [Российская Федерация]

Дополнительная информация

В oтличие oт бoльшинства пoгoдных сайтoв мы публикуем пoдрoбную метеoинфoрмацию в детальнoм прoфессиoнальнoм фoрмате.

Характеристики температуры и влажнoсти вoздуха измеряются на высoте 2 м в тени вдали oт зданий и деревьев.
Скoрoсть ветра измеряется на высoте 10 м (на урoвне рoста челoвека скoрoсть ветра ниже в 1.5-2 раза). Если метеoстанция нахoдится в гoрoде или в лесу, тo скoрoсть ветра занижена на 2-4 м/с пo сравнению с oткрытым местoм. Скoрoсть ветра над акватoриями крупных рек и oзёр, а также на вершинах хoлмoв на 2-5 м/с выше, чем в oбычных услoвиях.
Атмoсфернoе давление в разных тoчках местнoсти мoжет значительнo oтличаться oт давления на метеoстанции, в зависимoсти oт услoвий рельефа (при пoдъёме на 10 м давление пoнижается примернo на 1 мм рт.ст.).